Regional Weather Roundup
Issued by NWS Newport/Morehead, NC

Current Version | Previous Version | Graphics & Text | Print | Product List | Glossary On
Versions: 1 2 3 4 5 6 7 8 9 10 11 12 13 14 15 16 17 18 19 20 21 22 23 24 25 26 27 28 29 30 31 32 33 34 35 36 37 38 39 40 41 42 43 44 45 46 47 48 49 50
000 ASUS42 KMHX 291525 RWRMHX WEATHER ROUNDUP FOR EASTERN NORTH CAROLINA NATIONAL WEATHER SERVICE NEWPORT/MOREHEAD CITY NC 1100 AM EDT THU SEP 29 2016 NOTE: "FAIR" INDICATES FEW OR NO CLOUDS BELOW 12,000 FEET WITH NO SIGNIFICANT WEATHER AND/OR OBSTRUCTIONS TO VISIBILITY NCZ015>017-031-032-045>047-102-103-291600- NORTH COAST CITY SKY/WX TMP DP RH WIND PRES REMARKS EDENTON RAIN 80 80 100 NE3 30.06S ELIZABETH CITY CLOUDY 80 74 81 N5 30.05F KITTY HAWK PTSUNNY 80 77 91 NE5 30.04S MANTEO PTSUNNY 78 74 87 E6 30.05R $$ NCZ045>047-081-094-103-104-291600- CENTRAL COAST CITY SKY/WX TMP DP RH WIND PRES REMARKS FRISCO PTSUNNY 85 74 69 VRB6 30.03S $$ NCZ095-097-098-100-101-291600- SOUTHERN COAST CITY SKY/WX TMP DP RH WIND PRES REMARKS BEAUFORT CLOUDY 81 75 82 E6 30.01F CEDAR ISLAND NOT AVBL JACKSONVILLE CLOUDY 72 69 90 NW13 30.03R PINEY ISLAND CLOUDY N/A N/A N/A NE8 30.02S WILMINGTON PTSUNNY 75 68 78 N10 30.03R $$ NCZ011>013-027>030-043-044-078>080-089-090>093-098-291600- COASTAL PLAIN CITY SKY/WX TMP DP RH WIND PRES REMARKS AHOSKIE CLOUDY 72 71 98 CALM 30.06S CLINTON HVY RAIN 67 67 100 CALM 30.04S VSB 3/4 ELIZABETHTOWN RAIN 67 67 100 E6 30.03F GOLDSBORO LGT RAIN 68 68 100 E10 30.04R GREENVILLE RAIN 70 70 100 CALM 30.08R HAVELOCK CLOUDY 80 74 81 NE5 30.03 KENANSVILLE RAIN 68 66 94 CALM 30.05R FOG KINSTON RAIN 68 68 100 NE7 30.07R NEW BERN CLOUDY 80 73 79 E6 30.04R RICHLANDS PTSUNNY 71 69 93 N7 30.04S ROCKY MOUNT LGT RAIN 69 67 93 VRB7 30.02R WASHINGTON CLOUDY 76 73 91 NE5 30.05S WHITEVILLE CLOUDY 69 67 96 NE8 30.01F $$ AMZ130-135-150-152-154-156-158-170-250-252-270-ANZ085-086-088-633-658-670-291600- MARINE OBSERVATIONS STATION/POSITION TIME TEMP WIND PRES WAVE SWELL AIR SEA DIR/SP/G HT/PER HT/PER (UTC) (F) (DEG/KT/KT) (MB) (FT/S) (FT/S) CHESAPEAKE LIGHT NOT AVBL 64 E VA BEACH 1450 75 74 40/ 6/ 8 1017.8 6/ 8 5/ 8 DUCK 1500 77 76 50/ 10/ 12 1017.2 2 E DUCK 1441 77 N/A 4/ 7 2/11 OREGON INLET 1500 77 78 50/ 11/ 13 1017.1 13E OREGON INLT 1500 77 N/A 4/ 8 5/ 8 HATTERAS CG 1500 80 78 40/ 5/ 8 1016.6 DIAMOND BUOY 1450 79 83 20/ 8/ 10 1016.7 3/11 3/11 CAPE LOOKOUT 1500 79 80/ 9/ 9 1016.1 BEAUFORT LAB 1500 80 77 90/ 5/ 7 1015.8 30 SE NEW RVR IN 1408 82 83 170/ 8/ 14 1016.1 30 SE NEW RVR IN 1455 83 N/A 3/ 8 2/11 27 SE WRIGHTSVLE 1408 80 81 180/ 10/ 14 1016.0 5 SE WRIGHTSVLE 1408 81 80 190/ 12/ 17 1016.7 225 S CAPE HAT 1450 81 83 150/ 8/ 8 1017.9 3/ 5 3/ 5 41 SE CHARLESTON 1450 78 82 140/ 16/ 17 1015.4 3/ 5 2/11 $$

USA.gov is the U.S. government's official web portal to all federal, state and local government web resources and services.